[[{"header":{"parameterUnit":"m.s-1","parameterCategory":1,"la1":30.2991,"la2":30.254,"lo1":-89.0895,"lo2":-89.0444,"dy":0.0017,"dx":0.0017,"nx":28,"ny":28,"refTime":"2025-11-21T03:00:00:Z","depth":0,"parameterNumber":2,"parameterNumberName":"U-component_of_WINDS"},"data":[0,0,0,0,0,0,0,0,0,0,0,0,0,0,0,0,0,0,0,0,0,0,0,0,0,0,0,0,0,0,0,0,0,0,0,0,0,0,0,0,0,0,0,0,0,0,0,0,0,0,0,0,0,0,0,0,0,0,2.1512,2.1513,0,2.1618,2.1619,2.162,2.1627,2.1626,2.1625,2.1623,2.1734,2.1738,2.1742,0,0,0,0,0,0,0,0,0,0,0,0,0,2.1321,2.1325,2.1512,2.1513,2.1515,2.1618,2.1619,2.1621,2.1627,2.1626,2.1624,2.1623,2.1733,2.1737,2.1742,0,0,0,0,0,0,0,0,0,0,0,0,0,2.1413,2.1326,2.1512,2.153,2.1533,2.1617,2.1619,2.1621,2.1627,2.1626,2.1624,2.1622,2.1731,2.1737,2.1743,2.1817,0,0,2.1762,2.1764,0,0,0,0,0,0,0,0,2.1408,2.142,2.1526,2.1529,2.1532,2.1607,2.1592,2.1687,2.1628,2.1592,2.1623,2.1621,2.1693,2.1702,2.1726,2.1822,2.1826,2.1762,2.1766,2.1768,2.177,0,0,0,0,0,0,0,2.1402,2.1416,2.1554,2.1528,2.1532,2.1535,2.1546,2.161,2.1651,2.1595,2.1595,2.1608,2.1695,2.172,2.1729,2.1828,2.1762,2.1767,2.1771,2.1773,2.1995,2.1997,0,0,0,0,0,0,2.1391,2.1411,2.1551,2.1557,2.1465,2.154,2.1552,2.1585,2.1651,2.1659,2.1609,2.1608,2.1711,2.1722,2.1733,2.1827,2.1768,2.1774,2.1778,2.1992,2.1995,2.1998,0,0,0,0,0,0,2.1387,2.1404,2.1546,2.1484,2.1503,2.1545,2.1582,2.1588,2.1614,2.1662,2.1669,2.1628,2.171,2.1724,2.1797,2.183,2.1777,2.1782,2.199,2.1993,2.1996,2.2012,0,0,0,0,0,0,2.1382,2.1402,2.1429,2.1485,2.1506,2.1607,2.1584,2.1592,2.1624,2.1623,2.1681,2.1689,2.171,2.1788,2.1803,2.1838,2.1787,2.1987,2.1991,2.1995,2.2009,2.2016,2.2022,0,0,0,0,0,2.1375,2.1429,2.143,2.1447,2.154,2.1608,2.1621,2.1643,2.1627,2.1655,2.1687,2.1687,2.1824,2.1795,2.1812,2.1849,2.1985,2.199,2.1995,2.2006,2.2014,2.2021,0,0,0,0,0,0,2.1375,2.1436,2.1438,2.1512,2.1555,2.1609,2.1646,2.165,2.17,2.1697,2.1723,2.1736,2.1809,2.1836,2.1802,2.1927,2.1903,2.1912,2.1906,2.1914,2.192,2.1912,2.1792,0,0,0,0,0,2.1384,2.1433,2.1484,2.1544,2.1566,2.1602,2.1633,2.1647,2.1693,2.1711,2.1748,2.1793,2.1848,2.1882,2.1934,2.2013,2.2028,2.2048,2.2054,2.2059,2.2067,2.2115,2.2125,2.2014,2.2014,2.2014,0,0,2.1402,2.1442,2.1471,2.1545,2.158,2.1633,2.1617,2.1672,2.1713,2.172,2.1791,2.182,2.1873,2.195,2.1986,2.1975,2.2101,2.2066,2.2069,2.2074,2.2121,2.2131,2.2141,2.2017,2.2017,2.2016,0,0,2.1463,2.1496,2.1552,2.1588,2.1642,2.1667,2.168,2.1735,2.1755,2.1826,2.1834,2.1883,2.1974,2.2013,2.2045,2.2125,2.2129,2.2142,2.2175,2.2221,2.223,2.2238,2.2269,2.228,2.2149,2.2149,2.2149,0,2.1479,2.1557,2.158,2.1636,2.167,2.168,2.1738,2.1772,2.184,2.1865,2.1852,2.197,2.2006,2.2094,2.2114,2.2139,2.2157,2.2135,2.2227,2.2235,2.2243,2.2273,2.2285,2.215,2.215,2.215,2.215,0,2.1576,2.163,2.1669,2.1735,2.1774,2.1831,2.1864,2.1901,2.1913,2.194,2.2015,2.206,2.2123,2.2145,2.2156,2.2236,2.2228,2.2221,2.2198,2.2254,2.2284,2.2295,2.2152,2.2152,2.2151,2.2151,0,0,2.1637,2.1718,2.1732,2.1764,2.1827,2.187,2.1929,2.1991,2.2023,2.2071,2.2123,2.2203,2.2198,2.2234,2.225,2.2291,2.2356,2.2279,2.2281,2.2294,2.2451,2.2457,2.247,2.2359,2.2361,2.2363,2.2447,0,2.1706,2.181,2.1835,2.1925,2.1978,2.199,2.2042,2.2087,2.2115,2.2166,2.2197,2.2254,2.2241,2.2263,2.2304,2.2339,2.2388,2.2333,2.241,2.2412,2.2397,2.2485,2.249,2.2568,2.2459,2.2461,2.2462,0,2.1799,2.1851,2.1946,2.2006,2.2029,2.2075,2.2136,2.2183,2.2236,2.2254,2.2297,2.231,2.2375,2.2349,2.2441,2.2403,2.2437,2.2459,2.2463,2.2471,2.2441,2.2497,2.2593,2.2605,2.248,2.2478,2.2477,0,2.1838,2.1931,2.2001,2.2028,2.2098,2.2131,2.2162,2.2213,2.225,2.2304,2.2329,2.239,2.2423,2.2471,2.2502,2.248,2.2593,2.2568,2.2612,2.2611,2.2635,2.2633,2.2738,2.2654,2.2654,2.2654,2.2653,0,2.1913,2.1971,2.202,2.2063,2.2131,2.216,2.2226,2.2258,2.2304,2.2356,2.237,2.2419,2.2456,2.251,2.2535,2.2609,2.2624,2.2642,2.2648,2.2641,2.2639,2.2664,2.266,2.2657,2.2656,2.2656,2.2655,0,2.1966,2.2,2.2079,2.214,2.2157,2.2204,2.2257,2.2302,2.2331,2.2397,2.2414,2.2461,2.2526,2.2562,2.2643,2.266,2.2744,2.2746,2.2726,2.2729,2.2771,2.2767,2.2896,2.2916,2.2817,2.2818,2.2819,0,2.2012,2.2058,2.2125,2.2161,2.2192,2.2249,2.2288,2.232,2.236,2.2426,2.2463,2.253,2.2584,2.2689,2.2731,2.2795,2.28,2.2841,2.281,2.2803,2.2803,2.2801,2.2807,2.2847,2.2848,2.2848,2.2849,0,2.2091,2.2107,2.2161,2.2223,2.2269,2.2319,2.2369,2.2398,2.2438,2.2483,2.255,2.2593,2.2678,2.2745,2.2813,2.2847,2.2856,2.2859,2.2873,2.2867,2.2854,2.2864,2.2743,2.2856,2.2855,2.2854,2.2854,2.2854,2.2144,2.2186,2.2241,2.2303,2.2344,2.2391,2.2437,2.2473,2.253,2.2601,2.2617,2.2689,2.2746,2.2838,2.2874,2.2933,2.2925,2.2944,2.2949,2.2954,2.2957,2.2844,2.2945,2.2945,2.2945,2.2945,2.2945,0,2.2225,2.2262,2.2318,2.2388,2.2438,2.2442,2.2499,2.254,2.2603,2.2655,2.2709,2.2789,2.2855,2.2904,2.2972,2.301,2.3016,2.3027,2.3025,2.3033,2.2959,2.2941,2.3021,2.3021,2.3021,2.3021,2.3021,2.3021,2.2273,2.2347,2.237,2.2466,2.2503,2.2573,2.2606,2.2651,2.2692,2.278,2.2836,2.2867,2.2919,2.2992,2.3054,2.3067,2.3092,2.3103,2.3117,2.3046,2.3038,2.303,2.3014,2.3108,2.3108,2.3187,2.3188,2.3188]},{"header":{"parameterUnit":"m.s-1","parameterCategory":1,"la1":30.2991,"la2":30.254,"lo1":-89.0895,"lo2":-89.0444,"dy":0.0017,"dx":0.0017,"nx":28,"ny":28,"refTime":"2025-11-21T03:00:00:Z","depth":0,"parameterNumber":3,"parameterNumberName":"V-component_of_WINDS"},"data":[0,0,0,0,0,0,0,0,0,0,0,0,0,0,0,0,0,0,0,0,0,0,0,0,0,0,0,0,0,0,0,0,0,0,0,0,0,0,0,0,0,0,0,0,0,0,0,0,0,0,0,0,0,0,0,0,0,0,0.2595,0.2595,0,0.2587,0.2587,0.2587,0.2572,0.2571,0.2571,0.2571,0.2563,0.2563,0.2563,0,0,0,0,0,0,0,0,0,0,0,0,0,0.2596,0.2596,0.2595,0.2595,0.2595,0.2587,0.2587,0.2587,0.2572,0.2571,0.2571,0.257,0.2563,0.2563,0.2563,0,0,0,0,0,0,0,0,0,0,0,0,0,0.2593,0.2596,0.2595,0.2586,0.2585,0.2587,0.2587,0.2587,0.2572,0.2571,0.2571,0.257,0.2563,0.2563,0.2563,0.2573,0,0,0.2564,0.2564,0,0,0,0,0,0,0,0,0.2593,0.2593,0.2588,0.2587,0.2586,0.258,0.2585,0.2582,0.2572,0.2577,0.2571,0.257,0.2569,0.2569,0.2568,0.2573,0.2572,0.2564,0.2564,0.2564,0.2564,0,0,0,0,0,0,0,0.2593,0.2593,0.2592,0.2587,0.2586,0.2582,0.2581,0.2584,0.2576,0.2576,0.2575,0.2574,0.2568,0.2568,0.2568,0.2572,0.2564,0.2564,0.2564,0.2564,0.2584,0.2584,0,0,0,0,0,0,0.2595,0.2593,0.2592,0.2592,0.2588,0.2583,0.2582,0.2582,0.2576,0.2574,0.2575,0.2574,0.2568,0.2568,0.2568,0.2578,0.2564,0.2564,0.2564,0.2583,0.2584,0.2584,0,0,0,0,0,0,0.2595,0.2595,0.2592,0.2592,0.2591,0.2583,0.2584,0.2582,0.2582,0.2574,0.2573,0.2576,0.2568,0.2567,0.2572,0.2578,0.2564,0.2564,0.2583,0.2583,0.2584,0.26,0,0,0,0,0,0,0.2595,0.2595,0.2599,0.2592,0.2592,0.2597,0.2584,0.2582,0.2582,0.2581,0.2575,0.2574,0.2567,0.2572,0.2572,0.2578,0.2564,0.2582,0.2583,0.2584,0.2599,0.2601,0.2603,0,0,0,0,0,0.2595,0.2604,0.2599,0.2599,0.2596,0.2597,0.2597,0.2589,0.2583,0.2586,0.2581,0.2574,0.2577,0.2572,0.2572,0.2578,0.2582,0.2583,0.2584,0.2598,0.2601,0.2603,0,0,0,0,0,0,0.2612,0.2603,0.2597,0.2605,0.2602,0.2595,0.2599,0.2592,0.2592,0.259,0.2581,0.258,0.2585,0.2582,0.2577,0.2587,0.2578,0.2579,0.2589,0.2592,0.2594,0.2595,0.2564,0,0,0,0,0,0.2616,0.2618,0.261,0.2617,0.2616,0.2608,0.2608,0.2602,0.2599,0.2598,0.2593,0.259,0.259,0.2591,0.259,0.2598,0.2597,0.2603,0.2605,0.2606,0.2608,0.2611,0.2613,0.2588,0.2588,0.2588,0,0,0.2626,0.2621,0.2623,0.262,0.2618,0.2619,0.2607,0.261,0.2611,0.2598,0.2602,0.2598,0.2594,0.26,0.2602,0.2598,0.2614,0.2608,0.2609,0.2609,0.2612,0.2615,0.2617,0.2588,0.2588,0.2588,0,0,0.2644,0.2641,0.2646,0.2643,0.2639,0.2633,0.2634,0.2628,0.2625,0.2628,0.2619,0.2619,0.262,0.2618,0.2616,0.2632,0.2625,0.2632,0.2643,0.2647,0.2649,0.265,0.2656,0.2658,0.2633,0.2633,0.2633,0,0.2657,0.2659,0.265,0.2653,0.2652,0.264,0.2645,0.2642,0.2638,0.2638,0.2632,0.2632,0.2629,0.2633,0.2637,0.2636,0.2637,0.2633,0.2649,0.2651,0.2652,0.2657,0.2659,0.2634,0.2634,0.2634,0.2634,0,0.2675,0.2676,0.2681,0.2677,0.2676,0.268,0.2671,0.2671,0.2665,0.266,0.2663,0.2658,0.2656,0.2657,0.2651,0.2661,0.2658,0.2651,0.2642,0.2656,0.266,0.2662,0.2635,0.2635,0.2635,0.2635,0,0,0.2705,0.2694,0.2696,0.2694,0.2687,0.2688,0.2691,0.2689,0.2689,0.2686,0.2689,0.2689,0.2682,0.268,0.2674,0.2677,0.2689,0.2669,0.2669,0.2673,0.2698,0.2704,0.2706,0.2684,0.2684,0.2684,0.2699,0,0.2722,0.2726,0.2718,0.2724,0.2725,0.2713,0.2716,0.2712,0.2707,0.2706,0.2701,0.2701,0.2692,0.2691,0.2693,0.2687,0.2694,0.2686,0.2685,0.2686,0.2687,0.2709,0.2715,0.2729,0.27,0.2701,0.2701,0,0.2743,0.274,0.2747,0.2739,0.2739,0.2742,0.2739,0.2739,0.2734,0.2729,0.2727,0.2719,0.2721,0.2711,0.2714,0.2708,0.2707,0.2704,0.2705,0.2705,0.2695,0.271,0.2733,0.2735,0.2704,0.2703,0.2703,0,0.2764,0.2762,0.2766,0.2764,0.2755,0.2757,0.2753,0.2748,0.2747,0.2744,0.2743,0.274,0.2739,0.2737,0.2728,0.2722,0.2731,0.2721,0.2727,0.2728,0.273,0.273,0.2754,0.2729,0.2729,0.2729,0.2729,0,0.2784,0.2789,0.2775,0.2778,0.2782,0.2771,0.2776,0.2771,0.2766,0.2767,0.2756,0.2757,0.2745,0.2744,0.2737,0.274,0.2739,0.2736,0.2734,0.2737,0.2738,0.2737,0.2736,0.273,0.273,0.273,0.273,0,0.2809,0.28,0.2803,0.2794,0.2792,0.2796,0.2787,0.2789,0.2782,0.2783,0.2783,0.2773,0.2772,0.2762,0.2759,0.2754,0.2759,0.2755,0.2761,0.276,0.2767,0.2766,0.2791,0.2794,0.2767,0.2768,0.2768,0,0.2823,0.2826,0.2817,0.2817,0.2813,0.2813,0.2812,0.2801,0.28,0.2793,0.2795,0.2793,0.2791,0.2789,0.2781,0.2778,0.2774,0.2783,0.2774,0.2776,0.2774,0.2774,0.2774,0.2785,0.2786,0.2786,0.2786,0,0.2849,0.2844,0.2842,0.2839,0.2837,0.2834,0.283,0.283,0.2818,0.2818,0.2816,0.2814,0.281,0.2808,0.2803,0.2799,0.279,0.2789,0.279,0.2794,0.2797,0.2795,0.2767,0.2789,0.2788,0.2788,0.2788,0.2788,0.2868,0.287,0.2864,0.2862,0.2858,0.2854,0.2855,0.2848,0.2846,0.2842,0.2836,0.2835,0.2828,0.2821,0.2818,0.2816,0.2811,0.2814,0.2814,0.2815,0.2816,0.2796,0.2815,0.2815,0.2815,0.2815,0.2815,0,0.2893,0.2888,0.2887,0.2881,0.288,0.2871,0.2866,0.2866,0.2865,0.2859,0.2857,0.2854,0.2852,0.2843,0.2839,0.284,0.2836,0.2839,0.2839,0.2838,0.2821,0.282,0.2843,0.2843,0.2842,0.2842,0.2842,0.2842,0.2906,0.2909,0.2903,0.2903,0.2898,0.2897,0.2894,0.2891,0.2886,0.2884,0.2881,0.2876,0.2869,0.2864,0.2861,0.2858,0.2857,0.2862,0.2858,0.2842,0.284,0.2837,0.2836,0.2862,0.2862,0.2876,0.2876,0.2876]}]]